Tracking 30160 objects as of 13-Feb-2025
HD Live streaming from Space Station
objects crossing your sky now

STARLINK-4379

Track STARLINK-4379 now!
10-day predictions
STARLINK-4379 is classified as:


NORAD ID: 53217
Int'l Code: 2022-084AE
Perigee: 569.0 km
Apogee: 571.3 km
Inclination: 97.7 °
Period: 95.9 minutes
Semi major axis: 6941 km
RCS: Unknown
Launch date: July 22, 2022
Source: United States (US)
Launch site: AIR FORCE WESTERN TEST RANGE (AFWTR)
Your satellite tracking list
Your tracking list is empty




NASA's NSSDC Master Catalog

Two Line Element Set (TLE):
1 53217U 22084AE  25044.41270846 -.00000290  00000-0 -18016-4 0  9994
2 53217  97.6545 107.8030 0001609 198.7702 161.3463 15.01258631140916
Source of the keplerian elements: AFSPC